,,Stat6,,Stat2,,Stat8,,Stat9,,Stat10,,Wind1,,Wind1,
time,status,PA1M_AVG,status,PR1M_SUM,status,RH1M_AVG,status,SR1M_AVG,status,TA1M_AVG,status,W1dAve1m,status,W1sAve1m,
2005-06-28, 00:00:00,VALID,918.368,VALID,0,VALID,100,VALID,0,VALID,18.6245,VALID,102,VALID,0.642078,
2005-06-28, 00:01:00,VALID,918.36,VALID,0,VALID,100,VALID,-0.0169808,VALID,18.6411,VALID,114,VALID,0.676339,
2005-06-28, 00:02:00,VALID,918.336,VALID,0,VALID,100,VALID,0,VALID,18.6543,VALID,124,VALID,1.35156,
2005-06-28, 00:03:00,VALID,918.321,VALID,0,VALID,100,VALID,-0.0169808,VALID,18.6476,VALID,134,VALID,1.11337,
2005-06-28, 00:04:00,VALID,918.319,VALID,0,VALID,100,VALID,0,VALID,18.657,VALID,123,VALID,0.52567,
2005-06-28, 00:05:00,VALID,918.303,VALID,0,VALID,100,VALID,0,VALID,18.6697,VALID,118,VALID,0.921875,
2005-06-28, 00:06:00,VALID,918.285,VALID,0,VALID,100,VALID,0.0169808,VALID,18.6669,VALID,124,VALID,0.442264,
2005-06-28, 00:07:00,VALID,918.282,VALID,0,VALID,100,VALID,-0.0169808,VALID,18.6639,VALID,120,VALID,0.622024,
2005-06-28, 00:08:00,VALID,918.272,VALID,0,VALID,100,VALID,-0.0169808,VALID,18.6667,VALID,123,VALID,0.650213,
2005-06-28, 00:09:00,VALID,918.268,VALID,0,VALID,100,VALID,0,VALID,18.66,VALID,117,VALID,0.594512,
2005-06-28, 00:10:00,VALID,918.252,VALID,0,VALID,100,VALID,-0.0169808,VALID,18.6699,VALID,111,VALID,0.478198,
2005-06-28, 00:11:00,VALID,918.233,VALID,0,VALID,100,VALID,-0.0169808,VALID,18.6736,VALID,130,VALID,0.707209,
2005-06-28, 00:12:00,VALID,918.218,VALID,0,VALID,100,VALID,-0.0339617,VALID,18.6669,VALID,126,VALID,1.07403,
2005-06-28, 00:13:00,VALID,918.207,VALID,0,VALID,100,VALID,0,VALID,18.6602,VALID,129,VALID,1.24479,
2005-06-28, 00:14:00,VALID,918.185,VALID,0,VALID,100,VALID,-0.0169808,VALID,18.6637,VALID,142,VALID,1.63477,
2005-06-28, 00:15:00,VALID,918.174,VALID,0,VALID,100,VALID,-0.0169808,VALID,18.6828,VALID,144,VALID,0.916602,
2005-06-28, 00:16:00,VALID,918.156,VALID,0,VALID,100,VALID,-0.0169808,VALID,18.6799,VALID,139,VALID,1.36646,
2005-06-28, 00:17:00,VALID,918.151,VALID,0,VALID,100,VALID,-0.0679233,VALID,18.6764,VALID,133,VALID,1.13969,
2005-06-28, 00:18:00,VALID,918.147,VALID,0,VALID,100,VALID,-0.0169808,VALID,18.66,VALID,138,VALID,1.62003,
2005-06-28, 00:19:00,VALID,918.156,VALID,0,VALID,100,VALID,-0.0169808,VALID,18.6669,VALID,138,VALID,1.28601,
2005-06-28, 00:20:00,VALID,918.16,VALID,0,VALID,100,VALID,-0.0169808,VALID,18.66,VALID,132,VALID,1.16193,
2005-06-28, 00:21:00,VALID,918.156,VALID,0,VALID,100,VALID,-0.0339617,VALID,18.6538,VALID,127,VALID,1.13849,
2005-06-28, 00:22:00,VALID,918.148,VALID,0,VALID,100,VALID,0,VALID,18.6632,VALID,130,VALID,1.56441,
2005-06-28, 00:23:00,VALID,918.146,VALID,0,VALID,100,VALID,-0.0339617,VALID,18.6568,VALID,126,VALID,1.44699,
2005-06-28, 00:24:00,VALID,918.14,VALID,0,VALID,100,VALID,-0.0169808,VALID,18.6734,VALID,130,VALID,1.21689,
2005-06-28, 00:25:00,VALID,918.143,VALID,0,VALID,100,VALID,-0.0339617,VALID,18.663,VALID,128,VALID,1.46522,
2005-06-28, 00:26:00,VALID,918.122,VALID,0,VALID,100,VALID,-0.0169808,VALID,18.6801,VALID,126,VALID,1.18032,
2005-06-28, 00:27:00,VALID,918.128,VALID,0,VALID,100,VALID,-0.0169808,VALID,18.6863,VALID,136,VALID,1.64666,
2005-06-28, 00:28:00,VALID,918.101,VALID,0,VALID,100,VALID,-0.0339617,VALID,18.6891,VALID,119,VALID,1.76072,
2005-06-28, 00:29:00,VALID,918.094,VALID,0,VALID,100,VALID,0,VALID,18.7054,VALID,122,VALID,1.66146,
2005-06-28, 00:30:00,VALID,918.09,VALID,0,VALID,100,VALID,-0.0169808,VALID,18.7188,VALID,119,VALID,1.7197,
2005-06-28, 00:31:00,VALID,918.088,VALID,0,VALID,100,VALID,-0.0169808,VALID,18.7186,VALID,120,VALID,0.971236,
2005-06-28, 00:32:00,VALID,918.078,VALID,0,VALID,100,VALID,-0.0339617,VALID,18.7248,VALID,119,VALID,1.06231,
2005-06-28, 00:33:00,VALID,918.069,VALID,0,VALID,100,VALID,0,VALID,18.731,VALID,128,VALID,1.0972,
2005-06-28, 00:34:00,VALID,918.071,VALID,0,VALID,100,VALID,-0.0169808,VALID,18.7216,VALID,138,VALID,1.72452,
2005-06-28, 00:35:00,VALID,918.043,VALID,0,VALID,100,VALID,-0.0169808,VALID,18.7181,VALID,132,VALID,1.53616,
2005-06-28, 00:36:00,VALID,918.021,VALID,0,VALID,100,VALID,0,VALID,18.7183,VALID,139,VALID,1.42508,
2005-06-28, 00:37:00,VALID,918.022,VALID,0,VALID,100,VALID,-0.0169808,VALID,18.7052,VALID,137,VALID,1.57322,
2005-06-28, 00:38:00,VALID,918.004,VALID,0,VALID,100,VALID,-0.0169808,VALID,18.7151,VALID,141,VALID,1.643,
2005-06-28, 00:39:00,VALID,917.977,VALID,0,VALID,100,VALID,0,VALID,18.7084,VALID,133,VALID,1.59757,
2005-06-28, 00:40:00,VALID,917.963,VALID,0,VALID,100,VALID,-0.0169808,VALID,18.7017,VALID,129,VALID,1.83775,
2005-06-28, 00:41:00,VALID,917.949,VALID,0,VALID,100,VALID,0,VALID,18.7112,VALID,118,VALID,1.30323,
2005-06-28, 00:42:00,VALID,917.929,VALID,0,VALID,100,VALID,0,VALID,18.7181,VALID,130,VALID,1.57031,
2005-06-28, 00:43:00,VALID,917.901,VALID,0,VALID,100,VALID,0,VALID,18.7179,VALID,123,VALID,1.16771,
2005-06-28, 00:44:00,VALID,917.878,VALID,0,VALID,100,VALID,0,VALID,18.7313,VALID,120,VALID,1.29976,
2005-06-28, 00:45:00,VALID,917.867,VALID,0,VALID,100,VALID,0,VALID,18.7278,VALID,119,VALID,1.20839,
2005-06-28, 00:46:00,VALID,917.834,VALID,0,VALID,100,VALID,0,VALID,18.7308,VALID,127,VALID,1.37481,
2005-06-28, 00:47:00,VALID,917.801,VALID,0,VALID,100,VALID,0,VALID,18.7345,VALID,116,VALID,1.39418,
2005-06-28, 00:48:00,VALID,917.777,VALID,0,VALID,100,VALID,-0.0169808,VALID,18.7347,VALID,105,VALID,1.08689,
2005-06-28, 00:49:00,VALID,917.748,VALID,0,VALID,100,VALID,-0.0169808,VALID,18.7306,VALID,135,VALID,1.33194,
2005-06-28, 00:50:00,VALID,917.718,VALID,0,VALID,100,VALID,-0.0169808,VALID,18.7439,VALID,123,VALID,1.15885,
2005-06-28, 00:51:00,VALID,917.696,VALID,0,VALID,100,VALID,0,VALID,18.7407,VALID,122,VALID,0.935501,
2005-06-28, 00:52:00,VALID,917.673,VALID,0,VALID,100,VALID,0,VALID,18.7442,VALID,120,VALID,0.779605,
2005-06-28, 00:53:00,VALID,917.66,VALID,0,VALID,100,VALID,0,VALID,18.7278,VALID,123,VALID,1.05256,
2005-06-28, 00:54:00,VALID,917.651,VALID,0,VALID,100,VALID,0,VALID,18.7474,VALID,125,VALID,1.17898,
2005-06-28, 00:55:00,VALID,917.639,VALID,0,VALID,100,VALID,-0.0169808,VALID,18.7209,VALID,126,VALID,1.21113,
2005-06-28, 00:56:00,VALID,917.628,VALID,0,VALID,100,VALID,0,VALID,18.7181,VALID,128,VALID,0.995458,
2005-06-28, 00:57:00,VALID,917.626,VALID,0,VALID,100,VALID,0,VALID,18.7278,VALID,135,VALID,1.12054,
2005-06-28, 00:58:00,VALID,917.602,VALID,0,VALID,100,VALID,0,VALID,18.7147,VALID,123,VALID,1.12773,
2005-06-28, 00:59:00,VALID,917.583,VALID,0,VALID,100,VALID,0,VALID,18.7084,VALID,129,VALID,1.36378,
2005-06-28, 01:00:00,VALID,917.575,VALID,0,VALID,100,VALID,-0.0169808,VALID,18.7149,VALID,131,VALID,1.05342,
2005-06-28, 01:01:00,VALID,917.58,VALID,0,VALID,100,VALID,0.0169808,VALID,18.7082,VALID,122,VALID,1.27437,
2005-06-28, 01:02:00,VALID,917.581,VALID,0,VALID,100,VALID,-0.0169808,VALID,18.7117,VALID,139,VALID,1.10728,
2005-06-28, 01:03:00,VALID,917.556,VALID,0,VALID,100,VALID,-0.0169808,VALID,18.7119,VALID,135,VALID,1.25854,
2005-06-28, 01:04:00,VALID,917.544,VALID,0,VALID,100,VALID,0.0169808,VALID,18.7052,VALID,139,VALID,1.53181,
2005-06-28, 01:05:00,VALID,917.523,VALID,0,VALID,100,VALID,0,VALID,18.6921,VALID,137,VALID,1.43088,
2005-06-28, 01:06:00,VALID,917.495,VALID,0,VALID,100,VALID,0,VALID,18.6884,VALID,130,VALID,1.30287,
2005-06-28, 01:07:00,VALID,917.464,VALID,0,VALID,100,VALID,0,VALID,18.6921,VALID,138,VALID,1.29129,
2005-06-28, 01:08:00,VALID,917.465,VALID,0,VALID,100,VALID,0,VALID,18.6888,VALID,139,VALID,0.940518,
2005-06-28, 01:09:00,VALID,917.458,VALID,0,VALID,100,VALID,0,VALID,18.6858,VALID,142,VALID,1.00305,
2005-06-28, 01:10:00,VALID,917.436,VALID,0,VALID,100,VALID,0.0169808,VALID,18.6759,VALID,131,VALID,1.19368,
2005-06-28, 01:11:00,VALID,917.421,VALID,0,VALID,100,VALID,-0.0169808,VALID,18.6727,VALID,137,VALID,1.22191,
2005-06-28, 01:12:00,VALID,917.418,VALID,0,VALID,100,VALID,0,VALID,18.6762,VALID,128,VALID,1.01545,
2005-06-28, 01:13:00,VALID,917.399,VALID,0,VALID,100,VALID,0,VALID,18.666,VALID,135,VALID,0.792151,
2005-06-28, 01:14:00,VALID,917.39,VALID,0,VALID,100,VALID,0,VALID,18.6757,VALID,131,VALID,1.01097,
2005-06-28, 01:15:00,VALID,917.384,VALID,0,VALID,100,VALID,0,VALID,18.6729,VALID,114,VALID,0.913462,
2005-06-28, 01:16:00,VALID,917.37,VALID,0,VALID,100,VALID,0,VALID,18.6732,VALID,110,VALID,1.08628,
2005-06-28, 01:17:00,VALID,917.356,VALID,0,VALID,100,VALID,0,VALID,18.6665,VALID,109,VALID,0.953325,
2005-06-28, 01:18:00,VALID,917.338,VALID,0,VALID,100,VALID,0,VALID,18.6702,VALID,106,VALID,1.14609,
2005-06-28, 01:19:00,VALID,917.313,VALID,0,VALID,100,VALID,-0.0169808,VALID,18.657,VALID,143,VALID,0.858073,
2005-06-28, 01:20:00,VALID,917.315,VALID,0,VALID,100,VALID,0,VALID,18.6573,VALID,131,VALID,0.969939,
2005-06-28, 01:21:00,VALID,917.289,VALID,0,VALID,100,VALID,-0.0169808,VALID,18.6399,VALID,119,VALID,0.716882,
2005-06-28, 01:22:00,VALID,917.255,VALID,0,VALID,100,VALID,-0.0169808,VALID,18.6508,VALID,134,VALID,1.44252,
2005-06-28, 01:23:00,VALID,917.237,VALID,0,VALID,100,VALID,0,VALID,18.6506,VALID,128,VALID,1.40323,
2005-06-28, 01:24:00,VALID,917.216,VALID,0,VALID,100,VALID,0,VALID,18.6536,VALID,135,VALID,1.0705,
2005-06-28, 01:25:00,VALID,917.198,VALID,0,VALID,100,VALID,-0.0169808,VALID,18.6536,VALID,119,VALID,1.30632,
2005-06-28, 01:26:00,VALID,917.183,VALID,0,VALID,100,VALID,0.0169808,VALID,18.66,VALID,123,VALID,1.42206,
2005-06-28, 01:27:00,VALID,917.164,VALID,0,VALID,100,VALID,0,VALID,18.6702,VALID,116,VALID,1.05124,
2005-06-28, 01:28:00,VALID,917.168,VALID,0,VALID,100,VALID,0,VALID,18.6732,VALID,130,VALID,1.47887,
2005-06-28, 01:29:00,VALID,917.172,VALID,0,VALID,100,VALID,0,VALID,18.6665,VALID,151,VALID,1.0793,
2005-06-28, 01:30:00,VALID,917.162,VALID,0,VALID,100,VALID,0,VALID,18.6799,VALID,147,VALID,1.21261,
2005-06-28, 01:31:00,VALID,917.164,VALID,0,VALID,100,VALID,-0.0169808,VALID,18.6665,VALID,130,VALID,1.33956,
2005-06-28, 01:32:00,VALID,917.14,VALID,0,VALID,100,VALID,0,VALID,18.6635,VALID,112,VALID,0.903161,
2005-06-28, 01:33:00,VALID,917.117,VALID,0,VALID,100,VALID,0,VALID,18.6732,VALID,118,VALID,0.934152,
2005-06-28, 01:34:00,VALID,917.121,VALID,0,VALID,100,VALID,0,VALID,18.6729,VALID,120,VALID,1.02578,
2005-06-28, 01:35:00,VALID,917.078,VALID,0,VALID,100,VALID,0,VALID,18.6695,VALID,128,VALID,0.862695,
2005-06-28, 01:36:00,VALID,917.073,VALID,0,VALID,100,VALID,0,VALID,18.6727,VALID,112,VALID,0.682478,
2005-06-28, 01:37:00,VALID,917.052,VALID,0,VALID,100,VALID,0.0339617,VALID,18.6826,VALID,108,VALID,0.852539,
2005-06-28, 01:38:00,VALID,917.059,VALID,0,VALID,100,VALID,0.0169808,VALID,18.6791,VALID,132,VALID,0.857195,
2005-06-28, 01:39:00,VALID,917.039,VALID,0,VALID,100,VALID,-0.0169808,VALID,18.6764,VALID,145,VALID,1.03278,
2005-06-28, 01:40:00,VALID,917.047,VALID,0,VALID,100,VALID,0,VALID,18.6921,VALID,145,VALID,0.85026,
2005-06-28, 01:41:00,VALID,917.024,VALID,0,VALID,100,VALID,0.0169808,VALID,18.6985,VALID,141,VALID,0.908296,
2005-06-28, 01:42:00,VALID,916.992,VALID,0,VALID,100,VALID,0,VALID,18.6987,VALID,136,VALID,1.53652,
2005-06-28, 01:43:00,VALID,916.96,VALID,0,VALID,100,VALID,0.0169808,VALID,18.6955,VALID,140,VALID,1.27764,
2005-06-28, 01:44:00,VALID,916.935,VALID,0,VALID,99.9718,VALID,0.0169808,VALID,18.7022,VALID,136,VALID,1.25745,
2005-06-28, 01:45:00,VALID,916.899,VALID,0,VALID,99.9608,VALID,0,VALID,18.6985,VALID,143,VALID,1.14329,
2005-06-28, 01:46:00,VALID,916.868,VALID,0,VALID,99.9647,VALID,0,VALID,18.702,VALID,140,VALID,0.989648,
2005-06-28, 01:47:00,VALID,916.863,VALID,0,VALID,99.8884,VALID,0.0169808,VALID,18.6987,VALID,141,VALID,1.67099,
2005-06-28, 01:48:00,VALID,916.843,VALID,0,VALID,99.8922,VALID,0,VALID,18.7119,VALID,143,VALID,1.37233,
2005-06-28, 01:49:00,VALID,916.857,VALID,0,VALID,99.8642,VALID,0,VALID,18.7087,VALID,143,VALID,1.42515,
2005-06-28, 01:50:00,VALID,916.853,VALID,0.2,VALID,99.9468,VALID,-0.0339617,VALID,18.699,VALID,143,VALID,1.29597,
2005-06-28, 01:51:00,VALID,916.852,VALID,0,VALID,99.9769,VALID,0,VALID,18.6925,VALID,146,VALID,1.25425,
2005-06-28, 01:52:00,VALID,916.866,VALID,0,VALID,100,VALID,0,VALID,18.6794,VALID,140,VALID,0.944712,
2005-06-28, 01:53:00,VALID,916.859,VALID,0,VALID,100,VALID,0,VALID,18.663,VALID,135,VALID,0.865916,
2005-06-28, 01:54:00,VALID,916.868,VALID,0,VALID,100,VALID,0,VALID,18.6538,VALID,138,VALID,1.20913,
2005-06-28, 01:55:00,VALID,916.858,VALID,0,VALID,100,VALID,-0.0339617,VALID,18.6374,VALID,134,VALID,0.947976,
2005-06-28, 01:56:00,VALID,916.861,VALID,0,VALID,99.9964,VALID,0,VALID,18.6414,VALID,136,VALID,1.0055,
2005-06-28, 01:57:00,VALID,916.842,VALID,0,VALID,99.9865,VALID,-0.0339617,VALID,18.628,VALID,127,VALID,1.17274,
2005-06-28, 01:58:00,VALID,916.825,VALID,0,VALID,99.9832,VALID,-0.0169808,VALID,18.6247,VALID,143,VALID,0.957667,
2005-06-28, 01:59:00,VALID,916.803,VALID,0,VALID,99.971,VALID,0,VALID,18.6148,VALID,130,VALID,1.19779,
2005-06-28, 02:00:00,VALID,916.799,VALID,0,VALID,99.9954,VALID,0,VALID,18.6153,VALID,148,VALID,1.18205,
2005-06-28, 02:01:00,VALID,916.777,VALID,0,VALID,100,VALID,-0.0169808,VALID,18.6022,VALID,144,VALID,1.20982,
2005-06-28, 02:02:00,VALID,916.764,VALID,0,VALID,99.999,VALID,-0.0169808,VALID,18.5892,VALID,140,VALID,1.48854,
2005-06-28, 02:03:00,VALID,916.755,VALID,0,VALID,100,VALID,-0.0679233,VALID,18.5858,VALID,146,VALID,1.17281,
2005-06-28, 02:04:00,VALID,916.737,VALID,0,VALID,100,VALID,0,VALID,18.5895,VALID,146,VALID,1.12604,
2005-06-28, 02:05:00,VALID,916.725,VALID,0,VALID,100,VALID,-0.0169808,VALID,18.5793,VALID,146,VALID,1.3875,
2005-06-28, 02:06:00,VALID,916.721,VALID,0,VALID,99.9631,VALID,-0.0169808,VALID,18.5798,VALID,135,VALID,1.75819,
2005-06-28, 02:07:00,VALID,916.693,VALID,0,VALID,99.8998,VALID,-0.0679233,VALID,18.583,VALID,144,VALID,1.7044,
2005-06-28, 02:08:00,VALID,916.694,VALID,0,VALID,99.8133,VALID,-0.0339617,VALID,18.6031,VALID,137,VALID,1.62881,
2005-06-28, 02:09:00,VALID,916.686,VALID,0,VALID,99.7434,VALID,-0.0339617,VALID,18.5929,VALID,138,VALID,1.73438,
2005-06-28, 02:10:00,VALID,916.679,VALID,0,VALID,99.7434,VALID,0,VALID,18.6088,VALID,117,VALID,0.926215,
2005-06-28, 02:11:00,VALID,916.658,VALID,0,VALID,99.7014,VALID,-0.0169808,VALID,18.6093,VALID,131,VALID,1.2807,
2005-06-28, 02:12:00,VALID,916.636,VALID,0,VALID,99.704,VALID,0,VALID,18.5992,VALID,117,VALID,1.11932,
2005-06-28, 02:13:00,VALID,916.639,VALID,0,VALID,99.6569,VALID,-0.0169808,VALID,18.5959,VALID,133,VALID,1.24255,
2005-06-28, 02:14:00,VALID,916.622,VALID,0,VALID,99.6099,VALID,-0.0169808,VALID,18.6091,VALID,118,VALID,1.10281,
2005-06-28, 02:15:00,VALID,916.608,VALID,0,VALID,99.6239,VALID,-0.0169808,VALID,18.6024,VALID,127,VALID,0.812891,
2005-06-28, 02:16:00,VALID,916.608,VALID,0,VALID,99.6531,VALID,-0.0339617,VALID,18.5922,VALID,116,VALID,0.792874,
2005-06-28, 02:17:00,VALID,916.6,VALID,0,VALID,99.6048,VALID,0,VALID,18.5895,VALID,106,VALID,1.16479,
2005-06-28, 02:18:00,VALID,916.611,VALID,0,VALID,99.6061,VALID,0,VALID,18.5957,VALID,111,VALID,0.803299,
2005-06-28, 02:19:00,VALID,916.621,VALID,0,VALID,99.5577,VALID,0,VALID,18.6024,VALID,96,VALID,0.943452,
2005-06-28, 02:20:00,VALID,916.64,VALID,0,VALID,99.6468,VALID,0,VALID,18.5957,VALID,64,VALID,0.802827,
2005-06-28, 02:21:00,VALID,916.633,VALID,0,VALID,99.7548,VALID,-0.0339617,VALID,18.5897,VALID,62,VALID,0.965661,
2005-06-28, 02:22:00,VALID,916.651,VALID,0,VALID,99.8616,VALID,0,VALID,18.58,VALID,56,VALID,1.1121,
2005-06-28, 02:23:00,VALID,916.649,VALID,0,VALID,99.9456,VALID,-0.0339617,VALID,18.5438,VALID,47,VALID,1.37812,
2005-06-28, 02:24:00,VALID,916.654,VALID,0,VALID,99.999,VALID,0,VALID,18.5314,VALID,48,VALID,1.43359,
2005-06-28, 02:25:00,VALID,916.664,VALID,0,VALID,100,VALID,-0.0339617,VALID,18.5152,VALID,56,VALID,1.43211,
2005-06-28, 02:26:00,VALID,916.659,VALID,0,VALID,100,VALID,0,VALID,18.5053,VALID,48,VALID,1.48171,
2005-06-28, 02:27:00,VALID,916.646,VALID,0,VALID,100,VALID,-0.0169808,VALID,18.4954,VALID,45,VALID,1.37409,
2005-06-28, 02:28:00,VALID,916.631,VALID,0,VALID,100,VALID,-0.0339617,VALID,18.4929,VALID,42,VALID,1.56364,
2005-06-28, 02:29:00,VALID,916.605,VALID,0,VALID,100,VALID,-0.0339617,VALID,18.4857,VALID,40,VALID,1.58575,
2005-06-28, 02:30:00,VALID,916.592,VALID,0,VALID,100,VALID,0,VALID,18.4797,VALID,45,VALID,1.23028,
2005-06-28, 02:31:00,VALID,916.558,VALID,0,VALID,100,VALID,0,VALID,18.4666,VALID,50,VALID,1.0943,
2005-06-28, 02:32:00,VALID,916.532,VALID,0,VALID,100,VALID,0,VALID,18.4701,VALID,63,VALID,0.88186,
2005-06-28, 02:33:00,VALID,916.508,VALID,0,VALID,100,VALID,-0.0169808,VALID,18.4733,VALID,67,VALID,0.474609,
2005-06-28, 02:34:00,VALID,916.473,VALID,0,VALID,100,VALID,-0.0169808,VALID,18.4468,VALID,84,VALID,0.808036,
2005-06-28, 02:35:00,VALID,916.462,VALID,0,VALID,100,VALID,0,VALID,18.4537,VALID,101,VALID,0.790972,
2005-06-28, 02:36:00,VALID,916.443,VALID,0,VALID,100,VALID,0,VALID,18.444,VALID,98,VALID,0.696646,
2005-06-28, 02:37:00,VALID,916.44,VALID,0,VALID,100,VALID,0,VALID,18.4246,VALID,97,VALID,0.775534,
2005-06-28, 02:38:00,VALID,916.419,VALID,0,VALID,100,VALID,-0.0169808,VALID,18.4348,VALID,88,VALID,0.607599,
2005-06-28, 02:39:00,VALID,916.409,VALID,0,VALID,100,VALID,0,VALID,18.4117,VALID,119,VALID,0.674419,
2005-06-28, 02:40:00,VALID,916.402,VALID,0,VALID,100,VALID,-0.0169808,VALID,18.4117,VALID,106,VALID,0.776182,
2005-06-28, 02:41:00,VALID,916.403,VALID,0,VALID,100,VALID,-0.0339617,VALID,18.4154,VALID,118,VALID,1.02415,
2005-06-28, 02:42:00,VALID,916.401,VALID,0,VALID,100,VALID,0,VALID,18.4152,VALID,106,VALID,0.830433,
2005-06-28, 02:43:00,VALID,916.401,VALID,0,VALID,100,VALID,-0.0169808,VALID,18.4313,VALID,85,VALID,1.07732,
2005-06-28, 02:44:00,VALID,916.393,VALID,0,VALID,100,VALID,0,VALID,18.4375,VALID,66,VALID,0.994318,
2005-06-28, 02:45:00,VALID,916.393,VALID,0,VALID,100,VALID,-0.0169808,VALID,18.4341,VALID,58,VALID,1.16997,
2005-06-28, 02:46:00,VALID,916.405,VALID,0,VALID,100,VALID,0,VALID,18.4435,VALID,49,VALID,1.70969,
2005-06-28, 02:47:00,VALID,916.407,VALID,0,VALID,100,VALID,0,VALID,18.4634,VALID,48,VALID,1.73142,
2005-06-28, 02:48:00,VALID,916.408,VALID,0,VALID,100,VALID,0,VALID,18.4569,VALID,52,VALID,1.42862,
2005-06-28, 02:49:00,VALID,916.413,VALID,0,VALID,100,VALID,0,VALID,18.4472,VALID,54,VALID,1.5292,
2005-06-28, 02:50:00,VALID,916.4,VALID,0,VALID,100,VALID,0,VALID,18.4309,VALID,64,VALID,1.0389,
2005-06-28, 02:51:00,VALID,916.394,VALID,0,VALID,100,VALID,-0.0169808,VALID,18.4281,VALID,64,VALID,1.21736,
2005-06-28, 02:52:00,VALID,916.387,VALID,0,VALID,100,VALID,-0.0339617,VALID,18.4246,VALID,73,VALID,1.14896,
2005-06-28, 02:53:00,VALID,916.381,VALID,0,VALID,100,VALID,0,VALID,18.4246,VALID,79,VALID,1.21715,
2005-06-28, 02:54:00,VALID,916.37,VALID,0,VALID,100,VALID,0,VALID,18.4085,VALID,125,VALID,1.62664,
2005-06-28, 02:55:00,VALID,916.366,VALID,0,VALID,100,VALID,-0.0169808,VALID,18.412,VALID,133,VALID,1.57976,
2005-06-28, 02:56:00,VALID,916.373,VALID,0,VALID,100,VALID,0,VALID,18.4085,VALID,133,VALID,1.44141,
2005-06-28, 02:57:00,VALID,916.364,VALID,0,VALID,100,VALID,-0.0169808,VALID,18.4115,VALID,130,VALID,1.43731,
2005-06-28, 02:58:00,VALID,916.377,VALID,0,VALID,100,VALID,0,VALID,18.4212,VALID,131,VALID,1.38423,
2005-06-28, 02:59:00,VALID,916.369,VALID,0,VALID,100,VALID,-0.0169808,VALID,18.4214,VALID,111,VALID,1.14695,
2005-06-28, 03:00:00,VALID,916.376,VALID,0,VALID,100,VALID,0,VALID,18.4313,VALID,124,VALID,1.22816,
2005-06-28, 03:01:00,VALID,916.377,VALID,0,VALID,100,VALID,0,VALID,18.4373,VALID,111,VALID,1.24505,
2005-06-28, 03:02:00,VALID,916.387,VALID,0,VALID,100,VALID,0,VALID,18.4309,VALID,110,VALID,0.908594,
2005-06-28, 03:03:00,VALID,916.389,VALID,0,VALID,100,VALID,0,VALID,18.4313,VALID,127,VALID,0.818132,
2005-06-28, 03:04:00,VALID,916.405,VALID,0,VALID,100,VALID,0,VALID,18.4279,VALID,121,VALID,1.28398,
2005-06-28, 03:05:00,VALID,916.4,VALID,0,VALID,100,VALID,0.0169808,VALID,18.4343,VALID,127,VALID,1.0928,
2005-06-28, 03:06:00,VALID,916.407,VALID,0,VALID,100,VALID,0,VALID,18.4147,VALID,123,VALID,1.44586,
2005-06-28, 03:07:00,VALID,916.381,VALID,0,VALID,100,VALID,0,VALID,18.3986,VALID,104,VALID,1.08376,
2005-06-28, 03:08:00,VALID,916.387,VALID,0,VALID,100,VALID,0,VALID,18.3921,VALID,122,VALID,1.10898,
2005-06-28, 03:09:00,VALID,916.398,VALID,0,VALID,100,VALID,-0.0169808,VALID,18.3958,VALID,124,VALID,0.92152,
2005-06-28, 03:10:00,VALID,916.394,VALID,0,VALID,100,VALID,0,VALID,18.3859,VALID,135,VALID,0.884527,
2005-06-28, 03:11:00,VALID,916.393,VALID,0,VALID,99.9123,VALID,0,VALID,18.3695,VALID,132,VALID,1.14863,
2005-06-28, 03:12:00,VALID,916.391,VALID,0,VALID,99.6302,VALID,0,VALID,18.3601,VALID,136,VALID,1.29911,
2005-06-28, 03:13:00,VALID,916.399,VALID,0,VALID,99.3873,VALID,0,VALID,18.3765,VALID,134,VALID,1.34319,
2005-06-28, 03:14:00,VALID,916.412,VALID,0,VALID,99.1661,VALID,-0.0169808,VALID,18.3894,VALID,124,VALID,1.21615,
2005-06-28, 03:15:00,VALID,916.411,VALID,0,VALID,98.9474,VALID,0,VALID,18.3954,VALID,136,VALID,0.987282,
2005-06-28, 03:16:00,VALID,916.417,VALID,0,VALID,98.7375,VALID,0,VALID,18.432,VALID,138,VALID,1.14172,
2005-06-28, 03:17:00,VALID,916.422,VALID,0,VALID,98.5252,VALID,-0.0169808,VALID,18.4348,VALID,123,VALID,1.10998,
2005-06-28, 03:18:00,VALID,916.427,VALID,0,VALID,98.4464,VALID,0.0169808,VALID,18.4445,VALID,120,VALID,1.02024,
2005-06-28, 03:19:00,VALID,916.434,VALID,0,VALID,98.4629,VALID,0.0169808,VALID,18.4569,VALID,121,VALID,0.829078,
2005-06-28, 03:20:00,VALID,916.46,VALID,0,VALID,98.4451,VALID,-0.0169808,VALID,18.4604,VALID,132,VALID,0.736555,
2005-06-28, 03:21:00,VALID,916.474,VALID,0,VALID,98.4527,VALID,0,VALID,18.4634,VALID,128,VALID,0.582961,
2005-06-28, 03:22:00,VALID,916.473,VALID,0,VALID,98.5163,VALID,0,VALID,18.4698,VALID,123,VALID,0.223586,
2005-06-28, 03:23:00,VALID,916.476,VALID,0,VALID,98.66,VALID,0.0169808,VALID,18.4864,VALID,123,VALID,0.426417,
2005-06-28, 03:24:00,VALID,916.483,VALID,0,VALID,98.7668,VALID,0,VALID,18.4963,VALID,97,VALID,0.589286,
2005-06-28, 03:25:00,VALID,916.501,VALID,0,VALID,98.899,VALID,0.0169808,VALID,18.4763,VALID,72,VALID,0.456287,
2005-06-28, 03:26:00,VALID,916.506,VALID,0,VALID,99.0084,VALID,0.0169808,VALID,18.4671,VALID,72,VALID,0.393483,
2005-06-28, 03:27:00,VALID,916.523,VALID,0,VALID,99.1674,VALID,0,VALID,18.4507,VALID,72,VALID,0.440104,
2005-06-28, 03:28:00,VALID,916.552,VALID,0,VALID,99.3098,VALID,0,VALID,18.4345,VALID,72,VALID,0.265625,
2005-06-28, 03:29:00,VALID,916.569,VALID,0,VALID,99.3734,VALID,0,VALID,18.4152,VALID,72,VALID,0.108507,
2005-06-28, 03:30:00,VALID,916.582,VALID,0,VALID,99.442,VALID,0,VALID,18.4085,VALID,72,VALID,0.101753,
2005-06-28, 03:31:00,VALID,916.591,VALID,0,VALID,99.4853,VALID,0,VALID,18.4053,VALID,72,VALID,0.0636161,
2005-06-28, 03:32:00,VALID,916.599,VALID,0,VALID,99.5476,VALID,0,VALID,18.402,VALID,72,VALID,0,
2005-06-28, 03:33:00,VALID,916.599,VALID,0,VALID,99.6277,VALID,0,VALID,18.3859,VALID,72,VALID,0,
2005-06-28, 03:34:00,VALID,916.595,VALID,0,VALID,99.6862,VALID,-0.0169808,VALID,18.3762,VALID,72,VALID,0,
2005-06-28, 03:35:00,VALID,916.597,VALID,0,VALID,99.7612,VALID,0,VALID,18.3665,VALID,72,VALID,0.275568,
2005-06-28, 03:36:00,VALID,916.6,VALID,0,VALID,99.7726,VALID,0,VALID,18.3631,VALID,72,VALID,0.687881,
2005-06-28, 03:37:00,VALID,916.598,VALID,0,VALID,99.704,VALID,0,VALID,18.3894,VALID,74,VALID,0.80692,
2005-06-28, 03:38:00,VALID,916.608,VALID,0,VALID,99.6328,VALID,0,VALID,18.4018,VALID,84,VALID,0.813834,
2005-06-28, 03:39:00,VALID,916.599,VALID,0,VALID,99.5959,VALID,0.0169808,VALID,18.4212,VALID,98,VALID,1.05608,
2005-06-28, 03:40:00,VALID,916.59,VALID,0,VALID,99.5755,VALID,0,VALID,18.4177,VALID,103,VALID,1.14311,
2005-06-28, 03:41:00,VALID,916.599,VALID,0,VALID,99.5221,VALID,0.0509425,VALID,18.4375,VALID,103,VALID,1.1964,
2005-06-28, 03:42:00,VALID,916.596,VALID,0,VALID,99.4585,VALID,0,VALID,18.4567,VALID,107,VALID,1.43333,
2005-06-28, 03:43:00,VALID,916.596,VALID,0,VALID,99.3861,VALID,0,VALID,18.4763,VALID,103,VALID,1.27598,